EN

Hourly Weather Nuwejba

Today, 18 May, Tuesday

Time Temperature Precipitation Wind Pressure Humidity
00:00 +21°C° 0 mm 3 mps 691 mmHg 55%
01:00 +20°C° 0 mm 2 mps 690 mmHg 56%
02:00 +20°C° 0 mm 2 mps 690 mmHg 57%
03:00 +19°C° 0 mm 2 mps 690 mmHg 57%
04:00 +19°C° 0 mm 2 mps 690 mmHg 57%
05:00 +19°C° 0 mm 2 mps 690 mmHg 56%
06:00 +20°C° 0 mm 2 mps 691 mmHg 48%
07:00 +23°C° 0 mm 2 mps 691 mmHg 39%
08:00 +25°C° 0 mm 3 mps 692 mmHg 31%
09:00 +27°C° 0 mm 3 mps 692 mmHg 27%
10:00 +29°C° 0 mm 3 mps 692 mmHg 22%
11:00 +32°C° 0 mm 4 mps 692 mmHg 18%
12:00 +33°C° 0 mm 4 mps 692 mmHg 17%
13:00 +34°C° 0 mm 4 mps 691 mmHg 15%
14:00 +35°C° 0 mm 4 mps 691 mmHg 14%
15:00 +35°C° 0 mm 5 mps 691 mmHg 14%
16:00 +34°C° 0 mm 6 mps 691 mmHg 15%
17:00 +33°C° 0 mm 6 mps 691 mmHg 15%
18:00 +30°C° 0 mm 6 mps 691 mmHg 20%
19:00 +28°C° 0 mm 5 mps 691 mmHg 26%
20:00 +26°C° 0 mm 4 mps 691 mmHg 31%
21:00 +25°C° 0 mm 4 mps 691 mmHg 35%
22:00 +24°C° 0 mm 3 mps 691 mmHg 40%
23:00 +23°C° 0 mm 2 mps 691 mmHg 44%

Tomorrow, 19 May, Wednesday

Time Temperature Precipitation Wind Pressure Humidity
00:00 +21°C° 0 mm 2 mps 691 mmHg 45%
01:00 +21°C° 0 mm 2 mps 690 mmHg 45%
02:00 +20°C° 0 mm 2 mps 690 mmHg 46%
03:00 +20°C° 0 mm 2 mps 690 mmHg 44%
04:00 +20°C° 0 mm 2 mps 690 mmHg 42%
05:00 +20°C° 0 mm 2 mps 690 mmHg 41%
06:00 +23°C° 0 mm 2 mps 690 mmHg 37%
07:00 +25°C° 0 mm 3 mps 691 mmHg 33%
08:00 +27°C° 0 mm 3 mps 691 mmHg 29%
09:00 +29°C° 0 mm 3 mps 691 mmHg 25%
10:00 +31°C° 0 mm 3 mps 691 mmHg 21%
11:00 +34°C° 0 mm 3 mps 692 mmHg 17%
12:00 +35°C° 0 mm 3 mps 691 mmHg 15%
13:00 +37°C° 0 mm 3 mps 691 mmHg 13%
14:00 +38°C° 0 mm 3 mps 690 mmHg 11%
15:00 +37°C° 0 mm 4 mps 690 mmHg 12%
16:00 +37°C° 0 mm 5 mps 690 mmHg 13%
17:00 +36°C° 0 mm 5 mps 690 mmHg 14%
18:00 +33°C° 0 mm 5 mps 690 mmHg 20%
19:00 +30°C° 0 mm 5 mps 690 mmHg 27%
20:00 +27°C° 0 mm 4 mps 690 mmHg 34%
21:00 +26°C° 0 mm 4 mps 690 mmHg 37%
22:00 +25°C° 0 mm 3 mps 690 mmHg 40%
23:00 +24°C° 0 mm 3 mps 690 mmHg 43%

Day after tomorrow, 20 May, Thursday

Time Temperature Precipitation Wind Pressure Humidity
00:00 +24°C° 0 mm 3 mps 689 mmHg 44%
01:00 +24°C° 0 mm 2 mps 689 mmHg 44%
02:00 +23°C° 0 mm 2 mps 689 mmHg 44%
03:00 +23°C° 0 mm 2 mps 689 mmHg 43%
04:00 +23°C° 0 mm 2 mps 689 mmHg 42%
05:00 +23°C° 0 mm 2 mps 689 mmHg 41%
06:00 +25°C° 0 mm 2 mps 689 mmHg 35%
07:00 +28°C° 0 mm 3 mps 689 mmHg 30%
08:00 +30°C° 0 mm 3 mps 690 mmHg 24%
09:00 +33°C° 0 mm 3 mps 690 mmHg 21%
10:00 +35°C° 0 mm 3 mps 690 mmHg 17%
11:00 +37°C° 0 mm 3 mps 690 mmHg 13%
12:00 +38°C° 0 mm 3 mps 690 mmHg 12%
13:00 +40°C° 0 mm 4 mps 689 mmHg 11%
14:00 +41°C° 0 mm 4 mps 689 mmHg 9%
15:00 +40°C° 0 mm 5 mps 689 mmHg 13%
16:00 +38°C° 0 mm 6 mps 689 mmHg 16%
17:00 +36°C° 0 mm 7 mps 689 mmHg 19%
18:00 +33°C° 0 mm 6 mps 689 mmHg 24%
19:00 +30°C° 0 mm 5 mps 689 mmHg 30%
20:00 +27°C° 0 mm 5 mps 690 mmHg 35%
21:00 +26°C° 0 mm 4 mps 690 mmHg 37%
22:00 +26°C° 0 mm 3 mps 690 mmHg 39%
23:00 +25°C° 0 mm 2 mps 690 mmHg 41%

21 May, Friday

Time Temperature Precipitation Wind Pressure Humidity
00:00 +25°C° 0 mm 2 mps 689 mmHg 41%
01:00 +24°C° 0 mm 2 mps 689 mmHg 40%
02:00 +24°C° 0 mm 2 mps 689 mmHg 40%
03:00 +24°C° 0 mm 2 mps 689 mmHg 41%
04:00 +23°C° 0 mm 2 mps 689 mmHg 42%
05:00 +23°C° 0 mm 2 mps 689 mmHg 44%
06:00 +24°C° 0 mm 2 mps 689 mmHg 39%
07:00 +26°C° 0 mm 2 mps 690 mmHg 34%
08:00 +28°C° 0 mm 2 mps 690 mmHg 29%
09:00 +30°C° 0 mm 3 mps 690 mmHg 27%
10:00 +33°C° 0 mm 3 mps 690 mmHg 24%
11:00 +34°C° 0 mm 3 mps 690 mmHg 21%
12:00 +35°C° 0 mm 4 mps 690 mmHg 20%
13:00 +36°C° 0 mm 5 mps 690 mmHg 19%
14:00 +36°C° 0 mm 5 mps 690 mmHg 18%
15:00 +36°C° 0 mm 6 mps 690 mmHg 19%
16:00 +35°C° 0 mm 6 mps 690 mmHg 19%
17:00 +34°C° 0 mm 6 mps 690 mmHg 20%
18:00 +33°C° 0 mm 5 mps 690 mmHg 21%
19:00 +30°C° 0 mm 5 mps 690 mmHg 23%
20:00 +28°C° 0 mm 4 mps 690 mmHg 25%
21:00 +27°C° 0 mm 4 mps 690 mmHg 27%
22:00 +26°C° 0 mm 3 mps 690 mmHg 28%
23:00 +25°C° 0 mm 2 mps 690 mmHg 30%

22 May, Saturday

Time Temperature Precipitation Wind Pressure Humidity
00:00 +25°C° 0 mm 2 mps 690 mmHg 30%
01:00 +24°C° 0 mm 2 mps 690 mmHg 29%
02:00 +24°C° 0 mm 2 mps 690 mmHg 29%
03:00 +23°C° 0 mm 2 mps 690 mmHg 28%
04:00 +23°C° 0 mm 2 mps 690 mmHg 27%
05:00 +23°C° 0 mm 2 mps 690 mmHg 26%
06:00 +25°C° 0 mm 2 mps 690 mmHg 22%
07:00 +27°C° 0 mm 1 mps 691 mmHg 18%
08:00 +29°C° 0 mm 1 mps 691 mmHg 13%
09:00 +31°C° 0 mm 2 mps 691 mmHg 12%
10:00 +34°C° 0 mm 3 mps 691 mmHg 11%
11:00 +36°C° 0 mm 4 mps 691 mmHg 9%
12:00 +36°C° 0 mm 5 mps 691 mmHg 10%
13:00 +38°C° 0 mm 6 mps 691 mmHg 10%
14:00 +38°C° 0 mm 6 mps 691 mmHg 10%
15:00 +36°C° 0 mm 7 mps 691 mmHg 12%
16:00 +35°C° 0 mm 8 mps 690 mmHg 15%
17:00 +34°C° 0 mm 9 mps 690 mmHg 17%
18:00 +31°C° 0 mm 9 mps 691 mmHg 33%
19:00 +26°C° 0 mm 8 mps 691 mmHg 48%
20:00 +21°C° 0 mm 8 mps 691 mmHg 64%
21:00 +20°C° 0 mm 7 mps 691 mmHg 67%
22:00 +19°C° 0 mm 6 mps 691 mmHg 70%
23:00 +17°C° 0 mm 5 mps 691 mmHg 73%

23 May, Sunday

Time Temperature Precipitation Wind Pressure Humidity
00:00 +16°C° 0 mm 5 mps 691 mmHg 73%
01:00 +17°C° 0 mm 4 mps 691 mmHg 72%
02:00 +17°C° 0 mm 4 mps 690 mmHg 71%
03:00 +16°C° 0 mm 3 mps 690 mmHg 74%
04:00 +14°C° 0 mm 3 mps 690 mmHg 76%
05:00 +14°C° 0 mm 3 mps 690 mmHg 79%
06:00 +16°C° 0 mm 3 mps 690 mmHg 65%
07:00 +18°C° 0 mm 4 mps 691 mmHg 52%
08:00 +19°C° 0 mm 4 mps 691 mmHg 39%
09:00 +21°C° 0 mm 4 mps 691 mmHg 33%
10:00 +23°C° 0 mm 5 mps 691 mmHg 26%
11:00 +26°C° 0 mm 5 mps 691 mmHg 20%
12:00 +27°C° 0 mm 6 mps 691 mmHg 19%
13:00 +28°C° 0 mm 6 mps 691 mmHg 17%
14:00 +29°C° 0 mm 6 mps 690 mmHg 16%
15:00 +28°C° 0 mm 6 mps 690 mmHg 17%
16:00 +27°C° 0 mm 7 mps 690 mmHg 18%
17:00 +27°C° 0 mm 8 mps 690 mmHg 20%
18:00 +24°C° 0 mm 7 mps 691 mmHg 23%
19:00 +23°C° 0 mm 6 mps 691 mmHg 27%
20:00 +21°C° 0 mm 6 mps 691 mmHg 31%
21:00 +20°C° 0 mm 5 mps 691 mmHg 37%
22:00 +19°C° 0 mm 4 mps 691 mmHg 44%
23:00 +18°C° 0 mm 3 mps 691 mmHg 51%
Show more

We Need Your Consent

Meteoprog and our Service Providers may store and access personal data such as cookies, device identifiers or other similar technologies on your device and process such data to personalise content and ads, as well as provide social media features and to analyse the traffic.

  • Store and/or access information on your device

    Cookies, device identifiers or other information can be stored or accessed on your device for the purposes indicated above.

  • Personalised ads and content, ad and content measurement, audience insights, and products development

    Ads and content can be personalised based on a profile. More data can be added to better personalise ads and content. Ad and content performance can be measured. Insights about the audience who saw the ads and content can be derived. Such data can be used to develop or improve user’s experience, systems and software.

By clicking ‘I Agree’ you will allow the use of indicated cookies, device identifiers, web beacons or other similar technologies. Your settings can be changed in the browser on your device.

For certain purposes, legitimate interests may be relied on, rather than consent. You can read more about this in our Privacy and Cookie Policy.